When you browse on this site, cookies collect data to enhance your experience and personalize the content and advertising you see.
Visit our Privacy Policy to learn more. By continuing to use the site, you agree to this use of cookies and data.
  • In United Kingdom
  • List of Countries
  • For 7 days
  • Water Temperature
  • Satellite Maps
  • Weather Map
  • Weather Widgets
  • user-avatar
    Login

    Hourly Weather Nahf

    Today, 24 March, Sunday

    Time Temperature Precipitation Wind Pressure Humidity
    00:00 +13°C° 0 mm 1 mps 731 mmHg 78%
    01:00 +13°C° 0 mm 1 mps 731 mmHg 77%
    02:00 +13°C° 0 mm 1 mps 730 mmHg 74%
    03:00 +13°C° 0 mm 2 mps 730 mmHg 73%
    04:00 +13°C° 0 mm 2 mps 730 mmHg 72%
    05:00 +12°C° 0 mm 2 mps 729 mmHg 71%
    06:00 +13°C° 0 mm 1 mps 729 mmHg 68%
    07:00 +15°C° 0 mm 1 mps 729 mmHg 64%
    08:00 +16°C° 0 mm 1 mps 729 mmHg 62%
    09:00 +18°C° 0 mm 1 mps 729 mmHg 59%
    10:00 +17°C° 0 mm 2 mps 729 mmHg 57%
    11:00 +18°C° 0 mm 3 mps 729 mmHg 54%
    12:00 +18°C° 0 mm 4 mps 729 mmHg 55%
    13:00 +18°C° 0 mm 4 mps 729 mmHg 57%
    14:00 +17°C° 0 mm 5 mps 729 mmHg 57%
    15:00 +18°C° 0.1 mm 4 mps 728 mmHg 62%
    16:00 +17°C° 0.1 mm 4 mps 728 mmHg 66%
    17:00 +16°C° 0.1 mm 3 mps 728 mmHg 71%
    18:00 +14°C° 0.3 mm 3 mps 728 mmHg 76%
    19:00 +13°C° 0.3 mm 2 mps 728 mmHg 81%
    20:00 +12°C° 0.3 mm 2 mps 728 mmHg 86%
    21:00 +12°C° 0.4 mm 1 mps 728 mmHg 86%
    22:00 +12°C° 0.4 mm 1 mps 728 mmHg 86%
    23:00 +12°C° 0.4 mm 1 mps 728 mmHg 85%

    Tomorrow, 25 March, Monday

    Time Temperature Precipitation Wind Pressure Humidity
    00:00 +11°C° 0.5 mm 1 mps 728 mmHg 86%
    01:00 +11°C° 0.5 mm 1 mps 728 mmHg 86%
    02:00 +11°C° 0.5 mm 1 mps 728 mmHg 87%
    03:00 +11°C° 1 mm 1 mps 727 mmHg 88%
    04:00 +11°C° 1 mm 1 mps 727 mmHg 90%
    05:00 +10°C° 1 mm 1 mps 727 mmHg 91%
    06:00 +11°C° 0.8 mm 1 mps 728 mmHg 90%
    07:00 +11°C° 0.8 mm 1 mps 728 mmHg 88%
    08:00 +11°C° 0.8 mm 1 mps 729 mmHg 87%
    09:00 +12°C° 0.1 mm 2 mps 729 mmHg 82%
    10:00 +13°C° 0.1 mm 2 mps 729 mmHg 77%
    11:00 +14°C° 0.1 mm 3 mps 729 mmHg 72%
    12:00 +14°C° 0.2 mm 4 mps 730 mmHg 69%
    13:00 +15°C° 0.2 mm 6 mps 730 mmHg 67%
    14:00 +15°C° 0.2 mm 7 mps 730 mmHg 64%
    15:00 +14°C° 0 mm 7 mps 730 mmHg 66%
    16:00 +12°C° 0 mm 7 mps 731 mmHg 67%
    17:00 +11°C° 0 mm 6 mps 731 mmHg 69%
    18:00 +10°C° 0 mm 5 mps 731 mmHg 68%
    19:00 +10°C° 0 mm 4 mps 732 mmHg 68%
    20:00 +10°C° 0 mm 3 mps 732 mmHg 67%
    21:00 +9°C° 0 mm 3 mps 733 mmHg 69%
    22:00 +9°C° 0 mm 2 mps 733 mmHg 70%
    23:00 +9°C° 0 mm 2 mps 733 mmHg 71%

    Day after tomorrow, 26 March, Tuesday

    Time Temperature Precipitation Wind Pressure Humidity
    00:00 +9°C° 0 mm 2 mps 734 mmHg 72%
    01:00 +9°C° 0 mm 2 mps 734 mmHg 73%
    02:00 +9°C° 0 mm 2 mps 734 mmHg 74%
    03:00 +10°C° 0 mm 1 mps 734 mmHg 74%
    04:00 +10°C° 0 mm 1 mps 734 mmHg 74%
    05:00 +10°C° 0 mm 1 mps 735 mmHg 75%
    06:00 +11°C° 0 mm 1 mps 735 mmHg 74%
    07:00 +12°C° 0 mm 1 mps 736 mmHg 73%
    08:00 +12°C° 0 mm 1 mps 736 mmHg 72%
    09:00 +13°C° 0 mm 2 mps 736 mmHg 69%
    10:00 +13°C° 0 mm 3 mps 736 mmHg 66%
    11:00 +14°C° 0 mm 3 mps 736 mmHg 63%
    12:00 +14°C° 0 mm 4 mps 736 mmHg 62%
    13:00 +15°C° 0 mm 4 mps 736 mmHg 61%
    14:00 +15°C° 0 mm 4 mps 736 mmHg 60%
    15:00 +15°C° 0 mm 4 mps 736 mmHg 63%
    16:00 +14°C° 0 mm 3 mps 736 mmHg 67%
    17:00 +14°C° 0 mm 3 mps 736 mmHg 70%
    18:00 +13°C° 0 mm 2 mps 736 mmHg 74%
    19:00 +12°C° 0 mm 2 mps 737 mmHg 78%
    20:00 +11°C° 0 mm 1 mps 737 mmHg 82%
    21:00 +11°C° 0 mm 1 mps 737 mmHg 82%
    22:00 +10°C° 0 mm 2 mps 737 mmHg 82%
    23:00 +10°C° 0 mm 2 mps 738 mmHg 82%

    27 March, Wednesday

    Time Temperature Precipitation Wind Pressure Humidity
    00:00 +10°C° 0.1 mm 2 mps 738 mmHg 80%
    01:00 +10°C° 0.1 mm 2 mps 738 mmHg 79%
    02:00 +10°C° 0.1 mm 2 mps 737 mmHg 78%
    03:00 +10°C° 0 mm 2 mps 737 mmHg 79%
    04:00 +9°C° 0 mm 2 mps 737 mmHg 79%
    05:00 +9°C° 0 mm 2 mps 737 mmHg 80%
    06:00 +9°C° 0.2 mm 2 mps 738 mmHg 79%
    07:00 +10°C° 0.2 mm 2 mps 738 mmHg 79%
    08:00 +12°C° 0.2 mm 2 mps 739 mmHg 78%
    09:00 +12°C° 0.2 mm 3 mps 739 mmHg 76%
    10:00 +14°C° 0.2 mm 3 mps 739 mmHg 73%
    11:00 +15°C° 0.2 mm 4 mps 739 mmHg 71%
    12:00 +15°C° 0.9 mm 4 mps 739 mmHg 72%
    13:00 +15°C° 0.9 mm 5 mps 739 mmHg 74%
    14:00 +16°C° 0.9 mm 6 mps 739 mmHg 75%
    15:00 +15°C° 0.9 mm 5 mps 739 mmHg 78%
    16:00 +14°C° 0.9 mm 4 mps 739 mmHg 81%
    17:00 +14°C° 0.9 mm 3 mps 740 mmHg 84%
    18:00 +14°C° 0.5 mm 2 mps 740 mmHg 86%
    19:00 +13°C° 0.5 mm 1 mps 740 mmHg 88%
    20:00 +11°C° 0.5 mm 0 mps 741 mmHg 91%
    21:00 +12°C° 0.2 mm 1 mps 741 mmHg 91%
    22:00 +12°C° 0.2 mm 1 mps 741 mmHg 91%
    23:00 +12°C° 0.2 mm 1 mps 741 mmHg 92%

    28 March, Thursday

    Time Temperature Precipitation Wind Pressure Humidity
    00:00 +12°C° 0.2 mm 1 mps 741 mmHg 92%
    01:00 +12°C° 0.2 mm 1 mps 741 mmHg 92%
    02:00 +12°C° 0.2 mm 1 mps 741 mmHg 92%
    03:00 +12°C° 0.2 mm 1 mps 741 mmHg 92%
    04:00 +12°C° 0.2 mm 1 mps 741 mmHg 92%
    05:00 +12°C° 0.2 mm 1 mps 741 mmHg 92%
    06:00 +13°C° 0.2 mm 1 mps 741 mmHg 90%
    07:00 +14°C° 0.2 mm 2 mps 742 mmHg 87%
    08:00 +15°C° 0.2 mm 2 mps 742 mmHg 85%
    09:00 +16°C° 0.1 mm 2 mps 742 mmHg 80%
    10:00 +17°C° 0.1 mm 3 mps 742 mmHg 76%
    11:00 +18°C° 0.1 mm 4 mps 742 mmHg 71%
    12:00 +18°C° 0.1 mm 4 mps 742 mmHg 71%
    13:00 +18°C° 0.1 mm 4 mps 741 mmHg 71%
    14:00 +18°C° 0.1 mm 4 mps 741 mmHg 71%
    15:00 +17°C° 0 mm 4 mps 741 mmHg 73%
    16:00 +17°C° 0 mm 3 mps 740 mmHg 75%
    17:00 +16°C° 0 mm 2 mps 740 mmHg 78%
    18:00 +15°C° 0 mm 2 mps 740 mmHg 82%
    19:00 +14°C° 0 mm 2 mps 740 mmHg 86%
    20:00 +12°C° 0 mm 1 mps 740 mmHg 89%
    21:00 +12°C° 0 mm 1 mps 740 mmHg 89%
    22:00 +12°C° 0 mm 1 mps 740 mmHg 88%
    23:00 +12°C° 0 mm 1 mps 739 mmHg 88%

    29 March, Friday

    Time Temperature Precipitation Wind Pressure Humidity
    00:00 +12°C° 0 mm 1 mps 739 mmHg 84%
    01:00 +12°C° 0 mm 1 mps 739 mmHg 81%
    02:00 +12°C° 0 mm 2 mps 738 mmHg 77%
    03:00 +12°C° 0 mm 2 mps 738 mmHg 73%
    04:00 +12°C° 0 mm 1 mps 738 mmHg 70%
    05:00 +12°C° 0 mm 1 mps 738 mmHg 66%
    06:00 +13°C° 0 mm 2 mps 738 mmHg 66%
    07:00 +14°C° 0 mm 2 mps 738 mmHg 65%
    08:00 +15°C° 0 mm 2 mps 738 mmHg 65%
    09:00 +15°C° 0.1 mm 2 mps 738 mmHg 61%
    10:00 +16°C° 0.1 mm 2 mps 737 mmHg 58%
    11:00 +17°C° 0.1 mm 2 mps 737 mmHg 54%
    12:00 +17°C° 0 mm 2 mps 736 mmHg 54%
    13:00 +18°C° 0 mm 2 mps 735 mmHg 54%
    14:00 +18°C° 0 mm 2 mps 735 mmHg 54%
    15:00 +18°C° 0 mm 2 mps 734 mmHg 57%
    16:00 +18°C° 0 mm 2 mps 734 mmHg 59%
    17:00 +18°C° 0 mm 2 mps 733 mmHg 61%
    18:00 +17°C° 0.2 mm 2 mps 733 mmHg 63%
    19:00 +16°C° 0.2 mm 3 mps 733 mmHg 64%
    20:00 +14°C° 0.2 mm 3 mps 732 mmHg 66%
    21:00 +14°C° 0.1 mm 4 mps 731 mmHg 69%
    22:00 +13°C° 0.1 mm 4 mps 731 mmHg 72%
    23:00 +13°C° 0.1 mm 5 mps 730 mmHg 75%
    Show more